User: anonymous
Location: Caltech
(34.1382°N, 118.1253°W)
Time: 00:19:55
(UTC-07:00)
Language:

Cosmos 1508 Rocket - Orbit

View from above orbital plane
View from above orbital plane
View from above satellite
View from above satellite

Ground track
Ground track

The orbit data is extracted from the following two-line orbital elements,

1 14484U 83111B   14110.51459182  .00058706  00000-0  96025-3 0  4959
2 14484 082.8443 024.7737 0232370 120.0013 300.1396 15.27396404563733
Epoch (UTC): 20 April 2014 12:21:00
Eccentricity: 0.0232370
inclination: 82.8443°
perigee height: 324 km
apogee height: 643 km
right ascension of ascending node: 24.7737°
argument of perigee: 120.0013°
revolutions per day: 15.27396404
mean anomaly at epoch: 300.1396°
orbit number at epoch: 56373

The dashed part of the orbit path shows where the satellite is in the earth's shadow,  

DLR